Location: City of Moscow
(46.7306°N, 116.9989°W)
Time: 08:13:58
(UTC+00:00)

USA 234 - Pass Details

Date: 08 March 2026
Orbit: 1102 x 1106 km, 123.0° (Epoch: 4 January)

Event Time Altitude Azimuth Distance (km) Brightness Sun altitude
Exits shadow 05:24:05 51° 268° (W) 1,370 3.8 -36.5°
Drops below altitude 10° 05:29:12 10° 303° (WNW) 2,969 6.3 -37.2°
Sets 05:31:45 0° 307° (NW) 3,931 7.1 -37.5°
